Погода в Тимирязевском

Россия / Томская область     56°28′42″N   84°53′05″E
темп.,
°C
ветер,
м/с
пор.,
м/с
влажн.,
%
обл.,
%
осадки,
мм/ч
давл.,
гПа
погр.,
м
6 декабря, пн
пн601:000юз61594100 0.1 1017761
04:000юз6149296 0.0 1017657
07:00−3юз61591100 0.0 1017545
10:00−2юз61590100 0.0 1017590
13:00−1юз51390100 0.0 1017588
16:00−2ююз41191100 0.0 1016471
19:00−3ююз4992100 0.0 1016358
22:00−4ююз31090100 0.0 1015354
7 декабря, вт
вт701:00−5ююз41093100 0.0 1014354
04:00−4ююз41196100 0.2 1013544
07:00−3ююз41195100 1.2 1012633
10:00−3юз41096100 0.5 1012719
13:00−3зюз4895100 1.4 1013669
16:00−4з3796100 0.4 1014486
19:00−8ссз3696100 1.2 1017327
22:00−11сз3894100 0.6 1020493
8 декабря, ср
ср801:00−13зсз3893100 0.8 1025467
04:00−15з3796100 0.1 1029273
07:00−23юз2210088 0.1 103227
10:00−24ююз2510080 0.0 103564
13:00−18ююз399169 0.0 1035277
16:00−16юз4108984 0.0 1035390
19:00−21ююз379918 0.0 1036125
22:00−24ююз2510066 0.0 103778
9 декабря, чт
чт901:00−24ююз2510092 0.0 103877
04:00−25ююз2410094 0.0 103964
07:00−26ююз2610098 0.1 104092
10:00−23ююз3899100 0.0 1041198
13:00−19ююз41096100 0.1 1041338
16:00−17ююз51193100 0.0 1040427
19:00−17ююз51392100 0.0 1040430
22:00−16ююз51491100 0.0 1040471
10 декабря, пт
пт1001:00−15ююз61588100 0.0 1038558
04:00−14ююз61594100 0.4 1036670
07:00−13юз51394100 1.6 1034745
10:00−12юз51293100 0.9 1034650
13:00−10юз51193100 1.3 1033598
16:00−9юз4109499 0.4 1034521
19:00−9юз4995100 0.7 1034427
22:00−8юз4995100 0.3 1034395